Weather History for KLKU - January, 2012

Change the Weather History Date:

Friday, January 27, 2012

  Actual Average (KCHO) Record (KCHO)
Temperature  
Mean Temperature 53 °F 36 °F  
Max Temperature 69 °F 45 °F 79 °F (1950)
Min Temperature 37 °F 26 °F 4 °F (1940)
Degree Days  
Heating Degree Days 12 29  
Month to date heating degree days 808  
Since 1 July heating degree days 2544  
Cooling Degree Days 0 0  
Month to date cooling degree days 0  
Year to date cooling degree days 0  
Growing Degree Days 3 (Base 50)    
Moisture  
Dew Point 46 °F    
Average Humidity 61    
Maximum Humidity 88    
Minimum Humidity 34    
Precipitation  
Precipitation 0.02 in 0.10 in 1.41 in (1976)
Month to date precipitation 2.45  
Year to date precipitation 2.45  
Sea Level Pressure  
Sea Level Pressure 29.63 in    
Wind  
Wind Speed 10 mph (WSW)    
Max Wind Speed 21 mph    
Max Gust Speed 32 mph    
Visibility 10 miles    
Events Rain    
T = Trace of Precipitation, MM = Missing Value Source: NWS Daily Summary

Daily Weather History Graph

Daily Weather History Graph

Search for Another Location

Airport or City:

Trip Planner

Search our weather history database for the weather conditions in past years. The results will help you decide how hot, cold, wet, or windy it might be!

Date:

Astronomy

Jan. 27, 2012 Rise Set
Actual Time 7:20 AM EST 5:28 PM EST
Civil Twilight 6:52 AM EST 5:56 PM EST
Nautical Twilight 6:20 AM EST 6:28 PM EST
Astronomical Twilight 5:49 AM EST 6:59 PM EST
Moon 9:19 AM EST (1/27) 10:11 PM EST (1/27)
Length of Visible Light 11h 04m
Length of Day
10h 08m
Waxing Crescent, 19% of the Moon is Illuminated
Jan 27
Waxing Crescent
Jan 30
First Quarter
Feb 7
Full
Feb 14
Last Quarter
Feb 21
New

Hourly Weather History & Observations

Time (EST) Temp. Windchill Dew Point Humidity Pressure Visibility Wind Dir Wind Speed Gust Speed Precip Events Conditions
12:15 AM 59.0 °F - 55.4 °F 88% 29.69 in 10.0 mi South 8.1 mph - N/A   Overcast
12:35 AM 60.8 °F - 55.4 °F 82% 29.68 in 10.0 mi South 6.9 mph - N/A   Overcast
12:55 AM 60.8 °F - 55.4 °F 82% 29.66 in 10.0 mi South 8.1 mph - N/A   Overcast
1:35 AM 60.8 °F - 55.4 °F 82% 29.63 in 10.0 mi South 8.1 mph - N/A   Overcast
1:55 AM 60.8 °F - 55.4 °F 82% 29.62 in 10.0 mi South 9.2 mph 17.3 mph N/A   Mostly Cloudy
2:15 AM 60.8 °F - 55.4 °F 82% 29.61 in 10.0 mi South 8.1 mph 16.1 mph N/A   Overcast
2:35 AM 62.6 °F - 57.2 °F 82% 29.60 in 10.0 mi South 9.2 mph 18.4 mph N/A   Overcast
2:55 AM 62.6 °F - 57.2 °F 82% 29.59 in 10.0 mi South 9.2 mph 16.1 mph N/A   Overcast
3:15 AM 62.6 °F - 57.2 °F 82% 29.58 in 10.0 mi South 11.5 mph 17.3 mph N/A   Overcast
3:35 AM 62.6 °F - 57.2 °F 82% 29.56 in 10.0 mi South 9.2 mph - N/A   Overcast
3:55 AM 62.6 °F - 57.2 °F 82% 29.56 in 10.0 mi South 9.2 mph - N/A Rain Rain
4:15 AM 62.6 °F - 57.2 °F 82% 29.54 in 10.0 mi South 6.9 mph 17.3 mph N/A   Drizzle
4:35 AM 62.6 °F - 57.2 °F 82% 29.53 in 10.0 mi South 5.8 mph - N/A   Mostly Cloudy
4:55 AM 62.6 °F - 57.2 °F 82% 29.53 in 10.0 mi South 6.9 mph - N/A   Overcast
5:15 AM 64.4 °F - 57.2 °F 77% 29.51 in 10.0 mi South 9.2 mph - N/A   Overcast
5:35 AM 64.4 °F - 57.2 °F 77% 29.50 in 10.0 mi South 11.5 mph 17.3 mph N/A   Overcast
5:55 AM 64.4 °F - 57.2 °F 77% 29.50 in 10.0 mi South 10.4 mph 17.3 mph N/A   Overcast
6:15 AM 64.4 °F - 57.2 °F 77% 29.49 in 10.0 mi South 9.2 mph 18.4 mph N/A   Overcast
6:35 AM 64.4 °F - 57.2 °F 77% 29.49 in 10.0 mi South 11.5 mph 20.7 mph N/A   Mostly Cloudy
6:55 AM 66.2 °F - 57.2 °F 73% 29.50 in 10.0 mi SSW 9.2 mph - N/A   Mostly Cloudy
7:15 AM 66.2 °F - 57.2 °F 73% 29.50 in 10.0 mi SSW 9.2 mph 16.1 mph N/A   Overcast
7:35 AM 66.2 °F - 57.2 °F 73% 29.49 in 10.0 mi South 8.1 mph 18.4 mph N/A   Scattered Clouds
7:55 AM 66.2 °F - 57.2 °F 73% 29.48 in 10.0 mi SSW 8.1 mph 18.4 mph N/A   Scattered Clouds
8:15 AM 66.2 °F - 57.2 °F 73% 29.50 in 10.0 mi South 10.4 mph - N/A   Mostly Cloudy
8:35 AM 64.4 °F - 57.2 °F 77% 29.48 in 7.0 mi SSW 5.8 mph - 0.01 in Rain Rain
8:55 AM 62.6 °F - 57.2 °F 82% 29.50 in 10.0 mi SW 6.9 mph - 0.02 in   Overcast
9:15 AM 62.6 °F - 57.2 °F 82% 29.50 in 10.0 mi West 5.8 mph - N/A   Scattered Clouds
9:35 AM 64.4 °F - 57.2 °F 77% 29.50 in 10.0 mi SW 4.6 mph - N/A   Clear
9:55 AM 66.2 °F - 57.2 °F 73% 29.50 in 10.0 mi West 11.5 mph 18.4 mph N/A   Scattered Clouds
10:15 AM 66.2 °F - 51.8 °F 60% 29.51 in 10.0 mi West 17.3 mph 24.2 mph N/A   Mostly Cloudy
10:35 AM 66.2 °F - 48.2 °F 52% 29.52 in 10.0 mi WSW 15.0 mph 21.9 mph N/A   Overcast
10:55 AM 66.2 °F - 46.4 °F 49% 29.53 in 10.0 mi West 13.8 mph 25.3 mph N/A   Overcast
11:15 AM 66.2 °F - 44.6 °F 46% 29.53 in 10.0 mi West 17.3 mph 29.9 mph N/A   Overcast
11:35 AM 69.8 °F - 46.4 °F 43% 29.53 in 10.0 mi West 16.1 mph 25.3 mph N/A   Mostly Cloudy
11:55 AM 68.0 °F - 44.6 °F 43% 29.53 in 10.0 mi West 18.4 mph 28.8 mph N/A   Mostly Cloudy
12:15 PM 69.8 °F - 44.6 °F 40% 29.54 in 10.0 mi West 20.7 mph 25.3 mph N/A   Scattered Clouds
12:35 PM 69.8 °F - 42.8 °F 38% 29.54 in 10.0 mi West 12.7 mph 32.2 mph N/A   Mostly Cloudy
12:55 PM 68.0 °F - 41.0 °F 37% 29.54 in 10.0 mi West 13.8 mph 24.2 mph N/A   Scattered Clouds
1:15 PM 69.8 °F - 41.0 °F 35% 29.55 in 10.0 mi West 19.6 mph 27.6 mph N/A   Mostly Cloudy
1:35 PM 69.8 °F - 41.0 °F 35% 29.56 in 10.0 mi West 12.7 mph 20.7 mph N/A   Mostly Cloudy
2:15 PM 64.4 °F - 37.4 °F 37% 29.59 in 10.0 mi West 12.7 mph 25.3 mph N/A   Mostly Cloudy
2:35 PM 66.2 °F - 39.2 °F 37% 29.61 in 10.0 mi West 15.0 mph 25.3 mph N/A   Scattered Clouds
2:55 PM 64.4 °F - 37.4 °F 37% 29.63 in 10.0 mi NW 10.4 mph 21.9 mph N/A   Mostly Cloudy
3:15 PM 64.4 °F - 35.6 °F 34% 29.66 in 10.0 mi WNW 15.0 mph 24.2 mph N/A   Mostly Cloudy
3:35 PM 62.6 °F - 35.6 °F 37% 29.68 in 10.0 mi NW 13.8 mph 25.3 mph N/A   Scattered Clouds
3:55 PM 60.8 °F - 33.8 °F 36% 29.70 in 10.0 mi NW 17.3 mph 24.2 mph N/A   Scattered Clouds
4:15 PM 60.8 °F - 33.8 °F 36% 29.71 in 10.0 mi NW 17.3 mph 25.3 mph N/A   Scattered Clouds
4:35 PM 57.2 °F - 32.0 °F 38% 29.73 in 10.0 mi WNW 15.0 mph 24.2 mph N/A   Clear
4:55 PM 57.2 °F - 30.2 °F 36% 29.75 in 10.0 mi WNW 19.6 mph 25.3 mph N/A   Clear
5:15 PM 55.4 °F - 30.2 °F 38% 29.76 in 10.0 mi WNW 15.0 mph 27.6 mph N/A   Clear
5:35 PM 55.4 °F - 30.2 °F 38% 29.77 in 10.0 mi WNW 13.8 mph 25.3 mph N/A   Clear
5:55 PM 53.6 °F - 30.2 °F 41% 29.80 in 10.0 mi WNW 10.4 mph 23.0 mph N/A   Clear
6:15 PM 53.6 °F - 30.2 °F 41% 29.83 in 10.0 mi WNW 5.8 mph 21.9 mph N/A   Clear
6:35 PM 51.8 °F - 30.2 °F 44% 29.85 in 10.0 mi NNW 3.5 mph - N/A   Clear
6:55 PM 51.8 °F - 30.2 °F 44% 29.85 in 10.0 mi NW 6.9 mph - N/A   Clear
7:15 PM 50.0 °F - 30.2 °F 47% 29.86 in 10.0 mi WNW 9.2 mph - N/A   Clear
7:35 PM 50.0 °F - 30.2 °F 47% 29.89 in 10.0 mi Calm Calm - N/A   Clear
7:55 PM 46.4 °F 43.5 °F 30.2 °F 53% 29.90 in 10.0 mi West 5.8 mph - N/A   Clear
8:15 PM 46.4 °F 43.5 °F 30.2 °F 53% 29.92 in 10.0 mi West 5.8 mph - N/A   Clear
8:35 PM 44.6 °F 43.1 °F 30.2 °F 57% 29.92 in 10.0 mi WNW 3.5 mph - N/A   Clear
8:55 PM 39.2 °F 35.9 °F 30.2 °F 70% 29.93 in 10.0 mi West 4.6 mph - N/A   Clear
9:15 PM 37.4 °F - 30.2 °F 75% 29.95 in 10.0 mi Calm Calm - N/A   Clear
9:35 PM 39.2 °F 37.0 °F 30.2 °F 70% 29.95 in 10.0 mi West 3.5 mph - N/A   Clear
9:55 PM 35.6 °F - 30.2 °F 81% 29.96 in 10.0 mi Calm Calm - N/A   Clear
10:15 PM 41.0 °F 36.4 °F 30.2 °F 65% 29.97 in 10.0 mi WSW 6.9 mph - N/A   Clear
10:35 PM 37.4 °F - 30.2 °F 75% 29.98 in 10.0 mi Calm Calm - N/A   Clear
10:55 PM 35.6 °F 32.8 °F 28.4 °F 75% 29.99 in 10.0 mi West 3.5 mph - N/A   Clear
11:15 PM 39.2 °F - 28.4 °F 65% 29.99 in 10.0 mi Calm Calm - N/A   Clear
11:35 PM 39.2 °F 37.0 °F 28.4 °F 65% 29.99 in 10.0 mi West 3.5 mph - N/A   Clear
11:55 PM 35.6 °F - 28.4 °F 75% 29.99 in 10.0 mi Calm Calm - N/A   Clear